This is the latest recevied weather packets stored in our database for station/object PA3BWK. If no packets are shown the sender has not sent any weather packets the latest 10 day(s).
| Time | Temp. | Humidity | Pressure | Rain* | Wind** | Luminosity | Snow |
|---|---|---|---|---|---|---|---|
| 1777566887 | 20.56° C | 27% | 1025.9 hPa | 0 mm | - | 259 W/m² | - |
| 1777566824 | 20.56° C | 27% | 1025.9 hPa | 0 mm | - | 259 W/m² | - |
| 1777566765 | 20.56° C | 27% | 1025.9 hPa | 0 mm | - | 269 W/m² | - |
| 1777566702 | 20.56° C | 27% | 1025.9 hPa | 0 mm | - | 278 W/m² | - |
| 1777566640 | 20.56° C | 28% | 1025.9 hPa | 0 mm | - | 285 W/m² | - |
| 1777566579 | 20.56° C | 29% | 1025.9 hPa | 0 mm | - | 294 W/m² | - |
| 1777566518 | 20.56° C | 29% | 1025.9 hPa | 0 mm | - | 303 W/m² | - |
| 1777566456 | 20.56° C | 29% | 1025.9 hPa | 0 mm | - | 322 W/m² | - |
| 1777566396 | 20° C | 26% | 1026 hPa | 0 mm | - | 287 W/m² | - |
| 1777566338 | 20° C | 26% | 1025.9 hPa | 0 mm | - | 195 W/m² | - |
| 1777566279 | 20° C | 28% | 1025.9 hPa | 0 mm | - | 164 W/m² | - |
| 1777566216 | 20° C | 27% | 1026 hPa | 0 mm | - | 238 W/m² | - |
| 1777566155 | 20.56° C | 27% | 1025.9 hPa | 0 mm | - | 334 W/m² | - |
| 1777566096 | 20.56° C | 27% | 1025.8 hPa | 0 mm | - | 361 W/m² | - |
| 1777566035 | 20.56° C | 27% | 1025.8 hPa | 0 mm | - | 364 W/m² | - |
| 1777565974 | 20.56° C | 27% | 1025.9 hPa | 0 mm | - | 364 W/m² | - |
| 1777565912 | 20.56° C | 25% | 1026.1 hPa | 0 mm | - | 368 W/m² | - |
| 1777565852 | 20.56° C | 26% | 1025.9 hPa | 0 mm | - | 368 W/m² | - |
| 1777565792 | 20.56° C | 25% | 1025.9 hPa | 0 mm | - | 375 W/m² | - |
| 1777565733 | 20.56° C | 26% | 1025.9 hPa | 0 mm | - | 375 W/m² | - |
| 1777565683 | 21.11° C | 26% | 1025.9 hPa | 0 mm | - | 376 W/m² | - |
| 1777565615 | 21.11° C | 26% | 1026 hPa | 0 mm | - | 380 W/m² | - |
| 1777565552 | 21.11° C | 24% | 1025.9 hPa | 0 mm | - | 382 W/m² | - |
| 1777565493 | 21.11° C | 27% | 1026 hPa | 0 mm | - | 383 W/m² | - |
| 1777565435 | 21.11° C | 26% | 1025.9 hPa | 0 mm | - | 387 W/m² | - |
* Rain latest hour (hover to see other rain measurements)
** Current wind speed in m/s (hover to see current wind gust speed)